Weather History for FBSK - January, 2013

Change the Weather History Date:

Thursday, January 24, 2013

  Actual Average Record
Temperature  
Mean Temperature 80 °F -  
Max Temperature 93 °F 86 °F - ()
Min Temperature 66 °F 65 °F - ()
Cooling Degree Days 14    
Growing Degree Days 30 (Base 50)    
Moisture  
Dew Point 55 °F    
Average Humidity 48    
Maximum Humidity 88    
Minimum Humidity 17    
Precipitation  
Precipitation 0.00 in - - ()
Sea Level Pressure  
Sea Level Pressure 30.05 in    
Wind  
Wind Speed 5 mph ()    
Max Wind Speed 9 mph    
Max Gust Speed -    
Visibility 6.2 miles    
Events      
T = Trace of Precipitation, MM = Missing Value Source: Averaged Metar Reports

Daily Weather History Graph

Daily Weather History Graph

Search for Another Location

Airport or City:

Trip Planner

Search our weather history database for the weather conditions in past years. The results will help you decide how hot, cold, wet, or windy it might be!

Date:

Astronomy

Jan. 24, 2013 Rise Set
Actual Time 5:47 AM CAT 7:08 PM CAT
Civil Twilight 5:23 AM CAT 7:33 PM CAT
Nautical Twilight 4:53 AM CAT 8:02 PM CAT
Astronomical Twilight 4:23 AM CAT 8:33 PM CAT
Moon 5:03 PM CAT (1/24) 3:18 AM CAT (1/24)
Length of Visible Light 14h 10m
Length of Day
13h 20m
Waxing Gibbous, 93% of the Moon is Illuminated
Jan 24
Waxing Gibbous
Jan 27
Full
Feb 3
Last Quarter
Feb 10
New
Feb 17
First Quarter

Hourly Weather History & Observations

Time (CAT) Temp. Heat Index Dew Point Humidity Pressure Visibility Wind Dir Wind Speed Gust Speed Precip Events Conditions
12:00 AM 73.4 °F - 62.6 °F 69% 30.06 in - North 4.6 mph - N/A   Clear
1:00 AM 69.8 °F - 60.8 °F 73% 30.06 in - Variable 1.2 mph - N/A   Clear
2:00 AM 71.6 °F - 60.8 °F 69% 30.06 in - East 4.6 mph - N/A   Clear
3:00 AM 69.8 °F - 62.6 °F 78% 30.06 in - South 3.5 mph - N/A   Clear
4:00 AM 69.8 °F - 62.6 °F 78% 30.06 in - SE 5.8 mph - N/A   Clear
5:00 AM 68.0 °F - 62.6 °F 83% 30.06 in - SE 4.6 mph - N/A   Clear
6:00 AM 66.2 °F - 62.6 °F 88% 30.09 in - SE 5.8 mph - N/A   Clear
8:00 AM 75.2 °F - 62.6 °F 65% 30.12 in - ENE 6.9 mph - N/A   Clear
9:00 AM 78.8 °F - 62.6 °F 57% 30.12 in - ENE 8.1 mph - N/A   Clear
10:00 AM 80.6 °F 81.5 °F 60.8 °F 51% 30.12 in - NE 6.9 mph - N/A   Clear
11:00 AM 84.2 °F 84.4 °F 60.8 °F 45% 30.09 in - NNE 5.8 mph - N/A   Clear
12:00 PM 87.8 °F 87.1 °F 59.0 °F 38% 30.09 in - NE 9.2 mph - N/A   Clear
1:00 PM 89.6 °F 87.3 °F 53.6 °F 29% 30.09 in - NNE 6.9 mph - N/A   Clear
2:00 PM 93.2 °F - 44.6 °F 19% 30.04 in 6.2 mi East 8.1 mph - N/A   Partly Cloudy
3:00 PM 93.2 °F - 42.8 °F 17% 30.01 in 6.2 mi East 8.1 mph - N/A   Partly Cloudy
4:00 PM 93.2 °F - 44.6 °F 19% 30.01 in 6.2 mi NE 3.5 mph - N/A   Partly Cloudy
5:00 PM 93.2 °F - 50.0 °F 23% 29.98 in 6.2 mi NE 4.6 mph - N/A   Partly Cloudy
6:00 PM 93.2 °F - 42.8 °F 17% 29.98 in 6.2 mi ENE 8.1 mph - N/A   Partly Cloudy
7:00 PM 89.6 °F - 42.8 °F 20% 29.98 in - NE 2.3 mph - N/A   Clear
8:00 PM 84.2 °F - 48.2 °F 29% 29.98 in - NE 4.6 mph - N/A   Clear
9:00 PM 80.6 °F 80.3 °F 53.6 °F 39% 30.01 in - North 4.6 mph - N/A   Clear
10:00 PM 75.2 °F - 57.2 °F 53% 30.01 in - NW 4.6 mph - N/A   Clear